FW0177 Weather Reports


time (UTC)temp
C
wind
direction
speed
KPH
gust
KPH
rain 1hr
cm
rain 24hr
cm
rain mn
cm
humidity
%
barometer
mb
20260510184559 24 0 0.0 3.2 0.00 0.00 0.00 77 1016.6
20260510183058 25 0 0.0 4.8 0.00 0.00 0.00 78 1016.7
20260510181558 24 0 0.0 6.4 0.00 0.00 0.00 78 1016.8
20260510180057 23 0 0.0 0.0 0.00 0.00 0.00 77 1017.1
20260510174556 23 0 0.0 0.0 0.00 0.00 0.00 80 1017.4
20260510173056 23 0 0.0 0.0 0.00 0.00 0.00 81 1017.5
20260510171554 22 0 0.0 0.0 0.00 0.00 0.00 84 1017.7
20260510170056 22 0 0.0 0.0 0.00 0.00 0.00 86 1018.1
20260510164555 21 0 0.0 0.0 0.00 0.00 0.00 89 1018.0
20260510163055 21 0 0.0 0.0 0.00 0.00 0.00 88 1018.1
20260510161602 21 0 0.0 0.0 0.00 0.00 0.00 88 1018.3
20260510160135 21 0 0.0 0.0 0.00 0.00 0.00 87 1018.1
20260510154600 21 0 0.0 0.0 0.00 0.00 0.00 87 1018.1
20260510153052 21 0 0.0 0.0 0.00 0.00 0.00 89 1018.0
20260510151556 20 0 0.0 0.0 0.00 0.00 0.00 91 1018.0
20260510150051 19 0 0.0 0.0 0.00 0.00 0.00 93 1018.0
20260510144549 19 0 0.0 0.0 0.00 0.00 0.00 96 1018.0
20260510143050 18 0 0.0 0.0 0.00 0.00 0.00 97 1018.0
20260510141600 18 0 0.0 0.0 0.00 0.00 0.00 98 1017.8
20260510140109 18 0 0.0 0.0 0.00 0.00 0.00 98 1017.9
20260510134602 18 0 0.0 0.0 0.00 0.00 0.00 98 1017.6
20260510133059 18 0 0.0 0.0 0.00 0.00 0.00 98 1017.4
20260510131600 17 0 0.0 0.0 0.00 0.00 0.00 98 1017.3
20260510130057 17 0 0.0 0.0 0.00 0.00 0.00 98 1016.9
20260510124604 17 0 0.0 0.0 0.00 0.00 0.00 98 1016.6
20260510123056 17 0 0.0 0.0 0.00 0.00 0.00 98 1016.6
20260510121556 17 0 0.0 0.0 0.00 0.00 0.00 98 1016.5
20260510120107 17 0 0.0 0.0 0.00 0.00 0.00 98 1016.2
20260510114555 16 0 0.0 0.0 0.00 0.00 0.00 98 1016.0
20260510113103 16 0 0.0 0.0 0.00 0.00 0.00 98 1015.9
20260510111608 16 0 0.0 0.0 0.00 0.00 0.00 98 1015.8
20260510110056 16 0 0.0 0.0 0.00 0.00 0.00 98 1015.5
20260510104554 16 0 0.0 0.0 0.00 0.00 0.00 98 1015.2
20260510103057 16 0 0.0 0.0 0.00 0.00 0.00 97 1015.0
20260510101556 16 0 0.0 0.0 0.00 0.00 0.00 98 1014.9
20260510100055 16 0 0.0 0.0 0.00 0.00 0.00 97 1014.9
20260510094553 16 0 0.0 0.0 0.00 0.00 0.00 97 1014.8
20260510093110 16 0 0.0 0.0 0.00 0.00 0.00 97 1014.6
20260510091555 16 0 0.0 0.0 0.00 0.00 0.00 97 1014.7
20260510090107 16 0 0.0 0.0 0.00 0.00 0.00 97 1014.5
20260510084556 16 0 0.0 0.0 0.00 0.00 0.00 97 1014.3
20260510083109 16 0 0.0 0.0 0.00 0.00 0.00 97 1014.0
20260510081611 16 0 0.0 0.0 0.00 0.00 0.00 97 1013.7
20260510080053 16 0 0.0 0.0 0.00 0.00 0.00 97 1013.6
20260510074552 17 0 0.0 0.0 0.00 0.00 0.00 97 1013.3
20260510073054 17 0 0.0 0.0 0.00 0.00 0.00 97 1013.2
20260510071552 17 0 0.0 0.0 0.00 0.00 0.00 97 1013.3
20260510070054 17 0 0.0 0.0 0.00 0.00 0.00 97 1013.2
20260510064601 17 0 0.0 0.0 0.00 0.00 0.00 97 1013.3
20260510063050 17 0 0.0 0.0 0.00 0.00 0.00 97 1013.4
20260510061550 17 0 0.0 0.0 0.00 0.00 0.00 97 1013.4
20260510060052 17 0 0.0 0.0 0.00 0.00 0.00 97 1013.7
20260510054551 17 0 0.0 0.0 0.00 0.00 0.00 97 1013.9
20260510053056 17 0 0.0 0.0 0.00 0.00 0.00 96 1013.8
20260510051556 17 0 0.0 0.0 0.00 0.00 0.00 97 1014.4
20260510050052 17 0 0.0 0.0 0.00 0.00 0.00 97 1014.4
20260510044610 17 0 0.0 0.0 0.00 0.00 0.00 96 1014.3
20260510043051 18 0 0.0 0.0 0.00 0.00 0.00 96 1014.5
20260510041553 18 0 0.0 0.0 0.00 0.00 0.00 96 1014.3
20260510040054 18 0 0.0 0.0 0.00 0.00 0.00 96 1014.1
20260510034554 18 0 0.0 0.0 0.00 0.00 0.00 96 1014.0
20260510033054 18 0 0.0 0.0 0.00 0.00 0.00 96 1014.5
20260510031555 18 0 0.0 0.0 0.00 0.00 0.00 96 1014.5
20260510030053 18 0 0.0 0.0 0.00 0.00 0.00 95 1014.3
20260510024556 18 0 0.0 0.0 0.00 0.00 0.00 95 1014.2
20260510023053 18 0 0.0 0.0 0.00 0.00 0.00 95 1014.5
20260510021554 18 0 0.0 0.0 0.00 0.00 0.00 95 1014.0
20260510020052 18 0 0.0 0.0 0.00 0.00 0.00 95 1014.3
20260510014554 19 0 0.0 0.0 0.00 0.00 0.00 95 1014.1
20260510013056 19 0 0.0 0.0 0.00 0.00 0.00 94 1014.1
20260510011557 19 0 0.0 0.0 0.00 0.00 0.00 93 1013.7
20260510010112 19 0 0.0 0.0 0.00 0.00 0.00 93 1013.5
20260510004550 19 0 0.0 0.0 0.00 0.00 0.00 92 1013.2
20260510003052 20 0 0.0 0.0 0.00 0.00 0.00 91 1013.2
20260510001553 20 0 0.0 1.6 0.00 0.00 0.00 91 1013.1
20260510000054 20 0 0.0 1.6 0.00 0.00 0.00 90 1012.9
20260509234609 20 0 0.0 3.2 0.00 0.00 0.00 90 1013.0
20260509233052 20 0 0.0 3.2 0.00 0.00 0.00 89 1012.8
20260509231550 20 0 0.0 0.0 0.00 0.00 0.00 89 1012.7
20260509230053 20 0 0.0 0.0 0.00 0.00 0.00 90 1012.4
20260509224553 20 0 0.0 0.0 0.00 0.00 0.00 89 1012.2
20260509223052 20 0 0.0 6.4 0.00 0.00 0.00 89 1012.2
20260509221556 20 0 1.6 6.4 0.00 0.00 0.00 88 1012.3
20260509220057 20 223 0.0 4.8 0.00 0.00 0.00 89 1012.3
20260509214553 21 0 0.0 0.0 0.00 0.00 0.00 87 1012.3
20260509213051 21 0 0.0 0.0 0.00 0.00 0.00 87 1012.1
20260509211555 21 0 0.0 0.0 0.00 0.00 0.00 86 1012.2
20260509210053 21 0 0.0 0.0 0.00 0.00 0.00 87 1012.0
20260509204558 21 0 0.0 0.0 0.00 0.00 0.00 87 1012.1
20260509203112 21 0 0.0 0.0 0.00 0.00 0.00 86 1012.0
20260509201604 20 0 0.0 0.0 0.00 0.00 0.00 87 1011.9
20260509200100 20 0 0.0 0.0 0.00 0.00 0.00 87 1011.9
20260509194555 20 0 0.0 0.0 0.00 0.00 0.00 87 1011.9
20260509193116 20 0 0.0 0.0 0.00 0.00 0.00 86 1012.0
20260509191558 20 0 0.0 0.0 0.00 0.00 0.00 86 1012.0